AE5HO Weather Reports


Display with metric or nautical units.
time (UTC)temp
F
wind
direction
speed
MPH
gust
MPH
rain 1hr
in
rain 24hr
in
rain mn
in
humidity
%
barometer
mb
20260903161700 86 194 0.0 2.0 0.00 0.00 0.00 76 1014.6
20260903161155 85 270 1.0 2.0 0.00 0.00 0.00 77 1014.4
20260903160651 85 334 0.0 2.0 0.00 0.00 0.00 78 1014.7
20260903160145 84 98 0.0 4.0 0.00 0.00 0.00 78 1014.6
20260903155644 84 16 0.0 2.0 0.00 0.00 0.00 79 1014.5
20260903155139 84 90 1.0 2.0 0.00 0.00 0.00 79 1014.5
20260903154635 83 192 2.0 2.0 0.00 0.00 0.00 80 1014.5
20260903154131 83 96 2.0 2.0 0.00 0.00 0.00 80 1014.4
20260903153626 83 172 0.0 2.0 0.00 0.00 0.00 80 1014.3
20260903153122 82 105 0.0 2.0 0.00 0.00 0.00 81 1014.4
20260903152618 82 180 2.0 3.0 0.00 0.00 0.00 81 1014.3
20260903152114 82 270 0.0 2.0 0.00 0.00 0.00 81 1014.3
20260903151613 82 106 0.0 3.0 0.00 0.00 0.00 81 1014.4
20260903151108 82 195 0.0 2.0 0.00 0.00 0.00 82 1014.4
20260903150608 82 80 2.0 3.0 0.00 0.00 0.00 81 1014.3
20260903145602 82 80 2.0 3.0 0.00 0.00 0.00 82 1014.2
20260903145058 81 180 0.0 3.0 0.00 0.00 0.00 82 1014.1
20260903144556 81 199 2.0 2.0 0.00 0.00 0.00 82 1014.5
20260903144053 81 195 0.0 3.0 0.00 0.00 0.00 83 1014.4
20260903143549 81 184 0.0 2.0 0.00 0.00 0.00 83 1014.7
20260903143044 80 190 0.0 2.0 0.00 0.00 0.00 83 1014.2
20260903142540 80 103 2.0 5.0 0.00 0.00 0.00 83 1014.6
20260903142037 80 0 0.0 2.0 0.00 0.00 0.00 82 1014.7
20260903141532 80 200 1.0 2.0 0.00 0.00 0.00 82 1014.7
20260903141027 80 185 0.0 3.0 0.00 0.00 0.00 82 1014.5
20260903140523 80 57 0.0 2.0 0.00 0.00 0.00 82 1014.4
20260903140018 80 203 0.0 1.0 0.00 0.00 0.00 82 1014.5
20260903135513 80 246 0.0 2.0 0.00 0.00 0.00 82 1014.3
20260903135013 80 188 1.0 3.0 0.00 0.00 0.00 82 1014.3
20260903134513 80 194 0.0 1.0 0.00 0.00 0.00 83 1014.4
20260903134009 80 228 0.0 2.0 0.00 0.00 0.00 83 1014.4
20260903133506 79 188 0.0 3.0 0.00 0.00 0.00 83 1014.3
20260903133001 79 203 0.0 2.0 0.00 0.00 0.00 83 1014.2
20260903132457 79 185 0.0 3.0 0.00 0.00 0.00 83 1014.2
20260903131957 79 187 0.0 3.0 0.00 0.00 0.00 83 1014.4
20260903131452 79 180 0.0 1.0 0.00 0.00 0.00 83 1014.0
20260903130951 79 180 0.0 2.0 0.00 0.00 0.00 83 1014.2
20260903130446 79 188 0.0 0.0 0.00 0.00 0.00 82 1014.3
20260903125945 79 180 0.0 0.0 0.00 0.00 0.00 82 1014.1
20260903125445 79 180 1.0 2.0 0.00 0.00 0.00 82 1014.4
20260903124944 79 172 0.0 1.0 0.00 0.00 0.00 82 1014.1
20260903124440 78 194 0.0 2.0 0.00 0.00 0.00 82 1014.0
20260903123939 78 195 0.0 3.0 0.00 0.00 0.00 82 1014.0
20260903123434 78 99 0.0 1.0 0.00 0.00 0.00 83 1014.0
20260903122933 78 165 1.0 2.0 0.00 0.00 0.00 83 1013.8
20260903122433 77 209 0.0 0.0 0.00 0.00 0.00 84 1013.9
20260903121931 77 209 0.0 0.0 0.00 0.00 0.00 83 1013.6
20260903121427 77 195 0.0 1.0 0.00 0.00 0.00 84 1013.9
20260903120923 77 187 0.0 1.0 0.00 0.00 0.00 83 1014.1
20260903120422 77 180 0.0 0.0 0.00 0.00 0.00 83 1013.7
20260903115921 77 172 0.0 0.0 0.00 0.00 0.00 84 1013.8
20260903115420 77 198 0.0 0.0 0.00 0.00 0.00 84 1013.6
20260903114920 77 188 0.0 0.0 0.00 0.00 0.00 84 1013.6
20260903114416 77 180 0.0 0.0 0.00 0.00 0.00 84 1013.6
20260903113912 77 180 0.0 0.0 0.00 0.00 0.00 83 1013.9
20260903113407 78 180 0.0 0.0 0.00 0.00 0.00 83 1013.7
20260903112903 78 195 0.0 0.0 0.00 0.00 0.00 84 1013.7
20260903112359 78 195 0.0 0.0 0.00 0.00 0.00 83 1013.9
20260903111857 78 195 0.0 0.0 0.00 0.00 0.00 84 1014.0
20260903111357 78 195 0.0 0.0 0.00 0.00 0.00 84 1013.6
20260903110853 78 180 0.0 0.0 0.00 0.00 0.00 83 1013.7
20260903110349 78 180 0.0 1.0 0.00 0.00 0.00 83 1013.5
20260903105844 78 180 0.0 0.0 0.00 0.00 0.00 83 1013.6
20260903105339 78 180 0.0 0.0 0.00 0.00 0.00 82 1013.6
20260903104838 78 180 0.0 0.0 0.00 0.00 0.00 82 1013.5
20260903104333 78 180 0.0 1.0 0.00 0.00 0.00 82 1013.5
20260903103830 78 246 0.0 0.0 0.00 0.00 0.00 81 1013.4
20260903103326 79 246 0.0 0.0 0.00 0.00 0.00 81 1013.3
20260903102822 79 246 0.0 0.0 0.00 0.00 0.00 80 1013.4
20260903102321 80 180 0.0 0.0 0.00 0.00 0.00 79 1013.4
20260903101821 80 180 0.0 0.0 0.00 0.00 0.00 78 1013.4
20260903101316 80 180 0.0 0.0 0.00 0.00 0.00 78 1013.3
20260903100812 80 82 0.0 1.0 0.00 0.00 0.00 78 1013.1
20260903100311 80 279 1.0 2.0 0.00 0.00 0.00 78 1013.5
20260903095809 80 180 0.0 1.0 0.00 0.00 0.00 79 1013.7
20260903095309 80 180 0.0 1.0 0.00 0.00 0.00 79 1013.7
20260903094804 80 186 0.0 2.0 0.00 0.00 0.00 79 1013.7
20260903094259 80 180 0.0 1.0 0.00 0.00 0.00 80 1013.6
20260903093755 80 195 0.0 1.0 0.00 0.00 0.00 80 1013.7
20260903093250 80 254 1.0 2.0 0.00 0.00 0.00 80 1013.7
20260903092750 80 261 0.0 2.0 0.00 0.00 0.00 80 1013.7
20260903092245 80 195 0.0 1.0 0.00 0.00 0.00 81 1013.6
20260903091743 80 195 0.0 1.0 0.00 0.00 0.00 81 1013.4
20260903091238 79 261 0.0 1.0 0.00 0.00 0.00 81 1013.3
20260903090734 79 195 0.0 0.0 0.00 0.00 0.00 82 1013.5
20260903090232 79 195 0.0 0.0 0.00 0.00 0.00 81 1013.5
20260903085731 80 195 0.0 0.0 0.00 0.00 0.00 81 1013.5
20260903085226 80 180 0.0 1.0 0.00 0.00 0.00 80 1013.4
20260903084724 80 188 0.0 2.0 0.00 0.00 0.00 80 1013.1
20260903084220 80 180 0.0 2.0 0.00 0.00 0.00 79 1013.4
20260903083715 80 180 0.0 0.0 0.00 0.00 0.00 79 1013.1
20260903083215 80 187 1.0 1.0 0.00 0.00 0.00 79 1013.5
20260903082714 80 160 0.0 2.0 0.00 0.00 0.00 78 1013.4
20260903082211 81 195 0.0 0.0 0.00 0.00 0.00 78 1013.3
20260903081710 80 172 0.0 1.0 0.00 0.00 0.00 78 1013.4
20260903081206 80 188 0.0 1.0 0.00 0.00 0.00 79 1013.5
20260903080702 80 194 0.0 2.0 0.00 0.00 0.00 78 1013.3
20260903080200 80 180 0.0 1.0 0.00 0.00 0.00 79 1013.6
20260903075659 80 180 0.0 0.0 0.00 0.00 0.00 79 1013.6
20260903075154 80 188 0.0 1.0 0.00 0.00 0.00 79 1013.4
20260903074653 80 180 0.0 0.0 0.00 0.00 0.00 80 1013.5
20260903074148 80 195 0.0 1.0 0.00 0.00 0.00 79 1013.5
20260903073643 80 180 0.0 1.0 0.00 0.00 0.00 79 1013.3
20260903073139 80 180 0.0 1.0 0.00 0.00 0.00 79 1013.5
20260903072635 80 203 1.0 1.0 0.00 0.00 0.00 79 1013.3
20260903072131 80 188 0.0 1.0 0.00 0.00 0.00 80 1013.7
20260903071627 80 188 0.0 0.0 0.00 0.00 0.00 79 1013.4
20260903071123 80 188 0.0 0.0 0.00 0.00 0.00 78 1013.6
20260903070622 80 188 0.0 1.0 0.00 0.00 0.00 78 1013.4
20260903070118 80 188 0.0 1.0 0.00 0.00 0.00 78 1013.4
20260903065617 80 195 0.0 1.0 0.00 0.00 0.00 78 1013.5
20260903065112 80 180 0.0 0.0 0.00 0.00 0.00 77 1013.5
20260903064611 80 195 0.0 1.0 0.00 0.00 0.00 77 1013.6
20260903064107 81 270 0.0 1.0 0.00 0.00 0.00 78 1013.5
20260903063602 80 187 0.0 2.0 0.00 0.00 0.00 77 1013.7
20260903063058 80 180 0.0 0.0 0.00 0.00 0.00 77 1013.8
20260903062553 80 180 1.0 3.0 0.00 0.00 0.00 77 1013.7
20260903062048 81 174 0.0 2.0 0.00 0.00 0.00 77 1013.9
20260903061544 81 180 1.0 2.0 0.00 0.00 0.00 76 1014.2
20260903061043 81 255 0.0 2.0 0.00 0.00 0.00 76 1014.2
20260903060543 81 195 0.0 2.0 0.00 0.00 0.00 76 1014.1
20260903060038 82 5 2.0 3.0 0.00 0.00 0.00 74 1013.9
20260903055536 82 180 0.0 3.0 0.00 0.00 0.00 74 1014.1
20260903055035 82 198 1.0 3.0 0.00 0.00 0.00 73 1014.3
20260903054530 82 186 0.0 2.0 0.00 0.00 0.00 73 1014.3
20260903054026 82 66 0.0 2.0 0.00 0.00 0.00 72 1014.5
20260903053526 82 82 1.0 3.0 0.00 0.00 0.00 72 1014.2
20260903053022 83 199 0.0 3.0 0.00 0.00 0.00 71 1014.2
20260903052518 83 169 0.0 3.0 0.00 0.00 0.00 70 1014.3
20260903052014 83 180 1.0 2.0 0.00 0.00 0.00 70 1014.1
20260903051514 83 180 0.0 5.0 0.00 0.00 0.00 69 1013.8
20260903051010 84 225 0.0 4.0 0.00 0.00 0.00 69 1014.0
20260903050508 84 291 1.0 3.0 0.00 0.00 0.00 69 1014.0
20260903050004 84 174 0.0 2.0 0.00 0.00 0.00 68 1014.1
20260903045459 84 180 0.0 2.0 0.00 0.00 0.00 68 1013.8
20260903044955 84 264 2.0 7.0 0.00 0.00 0.00 68 1013.9
20260903044450 84 240 0.0 3.0 0.00 0.00 0.00 67 1014.0
20260903043946 84 190 0.0 2.0 0.00 0.00 0.00 67 1013.9
20260903043442 85 180 0.0 1.0 0.00 0.00 0.00 67 1014.1
20260903042940 85 192 0.0 1.0 0.00 0.00 0.00 66 1013.9
20260903042436 85 184 0.0 2.0 0.00 0.00 0.00 66 1013.9
20260903041931 85 172 0.0 2.0 0.00 0.00 0.00 65 1014.1
20260903041428 85 180 1.0 3.0 0.00 0.00 0.00 65 1014.0
20260903040924 85 192 1.0 2.0 0.00 0.00 0.00 65 1014.0
20260903040422 85 186 3.0 3.0 0.00 0.00 0.00 64 1014.0
20260903035919 86 186 0.0 2.0 0.00 0.00 0.00 64 1013.8
20260903035414 86 166 0.0 5.0 0.00 0.00 0.00 64 1014.0
20260903034914 86 173 1.0 3.0 0.00 0.00 0.00 63 1014.0
20260903034409 86 185 3.0 3.0 0.00 0.00 0.00 63 1013.9
20260903033904 86 212 2.0 3.0 0.00 0.00 0.00 62 1014.1
20260903033400 87 202 0.0 3.0 0.00 0.00 0.00 62 1014.1
20260903032900 87 180 4.0 4.0 0.00 0.00 0.00 61 1014.0
20260903032355 87 165 1.0 5.0 0.00 0.00 0.00 60 1014.0
20260903031851 87 111 0.0 3.0 0.00 0.00 0.00 61 1013.8
20260903031350 88 154 2.0 6.0 0.00 0.00 0.00 60 1014.0
20260903030845 88 74 1.0 3.0 0.00 0.00 0.00 60 1013.8
20260903030341 88 195 1.0 3.0 0.00 0.00 0.00 60 1013.6
20260903025837 89 199 2.0 4.0 0.00 0.00 0.00 59 1013.6
20260903025332 89 200 3.0 3.0 0.00 0.00 0.00 58 1013.6
20260903024832 89 270 1.0 4.0 0.00 0.00 0.00 58 1013.4
20260903024332 90 270 0.0 2.0 0.00 0.00 0.00 57 1013.3
20260903023827 90 194 1.0 4.0 0.00 0.00 0.00 56 1013.3
20260903023323 90 21 0.0 5.0 0.00 0.00 0.00 56 1013.3
20260903022818 90 180 2.0 4.0 0.00 0.00 0.00 54 1013.1
20260903022317 91 188 2.0 4.0 0.00 0.00 0.00 53 1013.1
20260903021817 91 198 0.0 3.0 0.00 0.00 0.00 52 1012.8
20260903021313 91 203 0.0 2.0 0.00 0.00 0.00 52 1012.9
20260903020812 91 270 0.0 2.0 0.00 0.00 0.00 52 1012.8
20260903020307 92 184 2.0 3.0 0.00 0.00 0.00 52 1012.7
20260903015802 92 203 1.0 3.0 0.00 0.00 0.00 52 1012.6
20260903015258 92 187 2.0 3.0 0.00 0.00 0.00 52 1012.8
20260903014753 92 195 0.0 3.0 0.00 0.00 0.00 52 1012.8
20260903014252 92 192 1.0 5.0 0.00 0.00 0.00 53 1012.5
20260903013747 92 217 0.0 3.0 0.00 0.00 0.00 52 1012.5
20260903013246 92 180 1.0 3.0 0.00 0.00 0.00 52 1012.5
20260903012745 93 192 2.0 3.0 0.00 0.00 0.00 52 1012.3
20260903012246 93 191 0.0 3.0 0.00 0.00 0.00 52 1012.4
20260903011745 93 162 0.0 4.0 0.00 0.00 0.00 53 1012.2
20260903011244 93 187 0.0 3.0 0.00 0.00 0.00 52 1012.5
20260903010740 93 203 0.0 2.0 0.00 0.00 0.00 52 1012.1
20260903010236 93 188 2.0 3.0 0.00 0.00 0.00 52 1012.2
20260903005734 93 183 2.0 2.0 0.00 0.00 0.00 52 1012.0
20260903005229 94 270 0.0 2.0 0.00 0.00 0.00 52 1012.0
20260903004725 94 216 0.0 2.0 0.00 0.00 0.00 52 1012.2
20260903004220 94 191 0.0 3.0 0.00 0.00 0.00 51 1012.3
20260903003715 94 177 0.0 5.0 0.00 0.00 0.00 51 1012.2
20260903003210 95 198 2.0 3.0 0.00 0.00 0.00 51 1012.3
20260903002700 95 173 0.0 2.0 0.00 0.00 0.00 50 1012.1
20260903002200 96 185 2.0 3.0 0.00 0.00 0.00 49 1011.9
20260903001655 96 214 2.0 2.0 0.00 0.00 0.00 49 1011.9
20260903001154 96 187 1.0 4.0 0.00 0.00 0.00 48 1012.0
20260903000650 97 234 2.0 3.0 0.00 0.00 0.00 48 1011.9
20260903000150 97 261 0.0 2.0 0.00 0.00 0.00 48 1011.9
20260902235649 98 204 0.0 3.0 0.00 0.00 0.00 46 1011.9
20260902235144 99 235 3.0 4.0 0.00 0.00 0.00 43 1012.0
20260902234643 99 175 0.0 2.0 0.00 0.00 0.00 43 1011.8
20260902234142 98 166 0.0 3.0 0.00 0.00 0.00 43 1011.7
20260902233637 99 206 0.0 3.0 0.00 0.00 0.00 42 1011.8
20260902233137 99 191 0.0 3.0 0.00 0.00 0.00 41 1011.8
20260902232636 99 180 0.0 4.0 0.00 0.00 0.00 41 1011.8
20260902232135 99 237 0.0 2.0 0.00 0.00 0.00 41 1011.8
20260902231635 99 206 2.0 3.0 0.00 0.00 0.00 41 1011.9
20260902231130 100 195 0.0 2.0 0.00 0.00 0.00 41 1011.6
20260902230626 100 169 0.0 3.0 0.00 0.00 0.00 41 1011.9
20260902230124 100 195 1.0 1.0 0.00 0.00 0.00 40 1011.8
20260902225619 100 176 0.0 3.0 0.00 0.00 0.00 40 1011.6
20260902225119 100 72 2.0 4.0 0.00 0.00 0.00 41 1011.6
20260902224618 100 0 0.0 3.0 0.00 0.00 0.00 40 1011.7
20260902224114 100 185 0.0 3.0 0.00 0.00 0.00 40 1011.9
20260902223610 100 180 0.0 2.0 0.00 0.00 0.00 42 1011.8
20260902223109 100 164 0.0 3.0 0.00 0.00 0.00 41 1011.7
20260902222608 100 176 0.0 2.0 0.00 0.00 0.00 41 1011.9
20260902222107 100 180 0.0 3.0 0.00 0.00 0.00 42 1011.6
20260902221601 100 16 3.0 3.0 0.00 0.00 0.00 42 1011.8
20260902221056 100 63 0.0 2.0 0.00 0.00 0.00 42 1011.9
20260902220552 100 90 0.0 2.0 0.00 0.00 0.00 42 1012.3
20260902220046 100 190 0.0 2.0 0.00 0.00 0.00 43 1012.2
20260902215542 100 188 1.0 3.0 0.00 0.00 0.00 42 1012.0
20260902215037 99 186 0.0 2.0 0.00 0.00 0.00 42 1012.0
20260902214532 99 188 0.0 2.0 0.00 0.00 0.00 43 1012.1
20260902214031 99 23 2.0 3.0 0.00 0.00 0.00 42 1012.1
20260902213527 99 191 0.0 2.0 0.00 0.00 0.00 44 1012.2
20260902213026 99 249 1.0 2.0 0.00 0.00 0.00 44 1012.3
20260902212522 99 188 0.0 2.0 0.00 0.00 0.00 44 1012.3
20260902212018 98 234 0.0 4.0 0.00 0.00 0.00 44 1012.5
20260902211514 99 99 0.0 2.0 0.00 0.00 0.00 43 1012.6
20260902211009 99 7 1.0 1.0 0.00 0.00 0.00 43 1012.7
20260902210508 98 180 1.0 3.0 0.00 0.00 0.00 45 1012.7
20260902210008 98 249 0.0 3.0 0.00 0.00 0.00 46 1012.7
20260902205502 98 29 1.0 5.0 0.00 0.00 0.00 44 1012.9
20260902204957 98 352 0.0 4.0 0.00 0.00 0.00 44 1012.8
20260902204456 98 157 0.0 5.0 0.00 0.00 0.00 44 1013.3
20260902203952 98 319 3.0 3.0 0.00 0.00 0.00 45 1013.0
20260902203448 98 180 2.0 4.0 0.00 0.00 0.00 46 1012.9
20260902202946 98 304 0.0 6.0 0.00 0.00 0.00 44 1013.0
20260902202443 98 180 0.0 2.0 0.00 0.00 0.00 44 1013.1
20260902201939 98 23 0.0 2.0 0.00 0.00 0.00 45 1013.3
20260902201434 97 38 2.0 4.0 0.00 0.00 0.00 45 1013.3
20260902200934 97 203 0.0 3.0 0.00 0.00 0.00 45 1013.6
20260902200429 98 180 0.0 2.0 0.00 0.00 0.00 46 1013.7
20260902195925 98 165 0.0 1.0 0.00 0.00 0.00 47 1013.6
20260902195420 97 192 1.0 4.0 0.00 0.00 0.00 48 1013.8
20260902194914 97 172 2.0 2.0 0.00 0.00 0.00 48 1013.7
20260902194414 97 200 0.0 3.0 0.00 0.00 0.00 48 1013.8
20260902193909 96 246 0.0 1.0 0.00 0.00 0.00 48 1013.8
20260902193405 97 211 0.0 3.0 0.00 0.00 0.00 47 1014.2
20260902192904 97 209 0.0 3.0 0.00 0.00 0.00 49 1014.2
20260902192403 97 81 0.0 2.0 0.00 0.00 0.00 48 1014.5
20260902191902 97 194 0.0 2.0 0.00 0.00 0.00 48 1014.3
20260902191358 97 60 0.0 3.0 0.00 0.00 0.00 48 1014.3
20260902190859 96 74 0.0 2.0 0.00 0.00 0.00 48 1014.5
20260902190359 96 180 0.0 1.0 0.00 0.00 0.00 50 1014.3
20260902185855 96 188 0.0 3.0 0.00 0.00 0.00 50 1014.7
20260902185350 96 270 2.0 4.0 0.00 0.00 0.00 51 1014.5
20260902184845 97 203 0.0 1.0 0.00 0.00 0.00 50 1014.7
20260902184341 96 90 0.0 2.0 0.00 0.00 0.00 50 1014.7
20260902183836 96 90 1.0 2.0 0.00 0.00 0.00 50 1014.9
20260902183332 96 163 2.0 2.0 0.00 0.00 0.00 48 1015.1
20260902182828 96 191 0.0 2.0 0.00 0.00 0.00 49 1015.0
20260902182324 95 56 2.0 3.0 0.00 0.00 0.00 50 1015.2
20260902181820 96 212 2.0 3.0 0.00 0.00 0.00 50 1015.2
20260902181315 95 206 1.0 3.0 0.00 0.00 0.00 54 1015.4
20260902180809 95 203 1.0 3.0 0.00 0.00 0.00 55 1015.4
20260902180306 94 188 0.0 2.0 0.00 0.00 0.00 53 1015.5
20260902175801 95 188 0.0 2.0 0.00 0.00 0.00 52 1015.6
20260902175256 96 248 0.0 4.0 0.00 0.00 0.00 50 1015.8
20260902174751 95 191 2.0 6.0 0.00 0.00 0.00 51 1015.8
20260902174248 95 180 1.0 1.0 0.00 0.00 0.00 53 1015.9
20260902173743 95 180 0.0 2.0 0.00 0.00 0.00 53 1016.0
20260902173242 95 30 0.0 2.0 0.00 0.00 0.00 52 1016.1
20260902172737 96 208 0.0 2.0 0.00 0.00 0.00 51 1016.0
20260902172237 95 209 1.0 3.0 0.00 0.00 0.00 52 1016.2
20260902171732 94 240 0.0 2.0 0.00 0.00 0.00 53 1016.3
20260902171227 95 254 0.0 2.0 0.00 0.00 0.00 53 1016.4
20260902170724 94 249 0.0 2.0 0.00 0.00 0.00 54 1016.5
20260902170220 94 270 2.0 2.0 0.00 0.00 0.00 53 1016.3
20260902165720 95 166 2.0 2.0 0.00 0.00 0.00 53 1016.6
20260902165214 95 285 2.0 4.0 0.00 0.00 0.00 51 1016.6
20260902164715 96 188 0.0 3.0 0.00 0.00 0.00 52 1016.5
20260902164214 95 188 1.0 2.0 0.00 0.00 0.00 52 1016.8
20260902163709 95 229 0.0 2.0 0.00 0.00 0.00 52 1016.8
20260902163209 93 169 0.0 3.0 0.00 0.00 0.00 54 1016.6
20260902162708 93 191 2.0 2.0 0.00 0.00 0.00 56 1016.7
20260902162202 93 203 0.0 2.0 0.00 0.00 0.00 55 1016.9